TIANMU-1 08

Last updated on Sun Oct 06 2024 00:02:18 GMT+0000 (Coordinated Universal Time)

1 57400U 23101B 24279.53276834 .00019528 00000+0 92111-3 0 9996 2 57400 97.3490 333.5287 0007737 157.4625 202.6952 15.19482802 67161
UTC large
Height (km)
Speed (km/s)
/
Latitude / Longitude
Inclination (degrees)
Orbital Period (minutes)
Azimuth
Elevation
Range (km)
Doppler Factor

Next 0 passes for location: London (51.5072 / 0.1276)

Sorry there are no passes over London.